Location: Colle Pacifico
(43.5333°N, 13.3167°E)
Time: 16:03:02
(UTC+00:00)

Cosmos 1709 Rocket - Pass Details

Date: 07 June 2020
Orbit: 949 x 1001 km, 82.9° (Epoch: 11 July)

Event Time Altitude Azimuth Distance (km) Brightness Sun altitude
Exits shadow 00:05:04 44° 209° (SSW) 1,296 4.2 -22.3°
Maximum altitude 00:07:04 71° 279° (W) 1,010 4.0 -22.2°
Drops below altitude 10° 00:13:16 10° 4° (N) 2,712 7.4 -21.9°
Sets 00:15:49 0° 7° (N) 3,670 8.5 -21.8°
